Location: Chiroubles
(46.1812°N, 4.6660°E)
Time: 18:25:19
(UTC+00:00)

COSMOS 2428 - Pass Details

Date: 15 August 2020
Orbit: 844 x 859 km, 70.9° (Epoch: 23 September)

Event Time Altitude Azimuth Distance (km) Brightness Sun altitude
Rises 22:31:44 0° 332° (NNW) 3,436 7.1 -27.9°
Reaches altitude 10° 22:34:12 10° 331° (NNW) 2,498 6.1 -28.0°
Enters shadow 22:39:47 77° 265° (W) 885 2.7 -28.3°
